User: anonymous   Login
Location: Unspecified
(0.0000°N, 0.0000°E)
Time: 11:00:58
(UTC+00:00)
Language:

STARLINK-30927 - Orbit

View from above orbital plane
View from above orbital plane
View from above satellite
View from above satellite

Ground track
Ground track

The orbit is defined by the following mean orbital elements,

1 58382U          26145.32759720 +.00000000 +00000-0 +15026-4 0 00000
2 58382  53.1609   4.4879 0001134  91.8526 268.2607 15.34386629    02
Epoch (UTC): 25 May 2026 07:51:44
Eccentricity: 0.0001134
inclination: 53.1609°
perigee height: 462 km
apogee height: 464 km
right ascension of ascending node: 4.4879°
argument of perigee: 91.8526°
revolutions per day: 15.34386629
mean anomaly at epoch: 268.2607°

The dashed part of the orbit path shows where the satellite is in the earth's shadow,  

DLR